Regional Weather Roundup
Issued by NWS Sioux Falls, SD

Home | Current Version | Previous Version | Text Only | Print | Product List | Glossary Off
Versions: 1 2 3 4 5 6 7 8 9 10 11 12 13 14 15 16 17 18 19 20 21 22 23 24 25 26 27 28 29 30 31 32 33 34 35 36 37 38 39 40 41 42 43 44 45 46 47 48 49 50

344
ASUS43 KFSD 230610
RWRFSD

WEATHER ROUNDUP FOR SE SOUTH DAKOTA/SW MINNESOTA/NW IOWA
NATIONAL WEATHER SERVICE SIOUX FALLS SD
100 AM CDT THU MAR 23 2017

NOTE: "FAIR" INDICATES FEW OR NO CLOUDS BELOW 12,000 FEET WITH NO
SIGNIFICANT WEATHER AND OR OBSTRUCTIONS TO VISIBILITY.


SDZ038>040-050-052>070-230700-
SOUTHEAST SOUTH DAKOTA

CITY           SKY/WX    TMP DP  RH WIND       PRES   REMARKS
BROOKINGS      CLOUDY    37  25  61 S21G28    30.03F
CHAMBERLAIN    CLOUDY    42  30  62 SE12      29.91F
6HR MIN TEMP:  40; 6HR MAX TEMP:  48;

HURON          CLOUDY    38  28  67 S20G30    29.96F
6HR MIN TEMP:  37; 6HR MAX TEMP:  40;

MADISON        CLOUDY    37  28  70 S20G28    30.03F
MITCHELL       CLOUDY    43  28  55 SE22      29.99F
6HR MIN TEMP:  40; 6HR MAX TEMP:  43;

SIOUX FALLS    CLOUDY    40  27  59 SE16G23   30.08F
6HR MIN TEMP:  39; 6HR MAX TEMP:  40;

WINNER         FAIR      47  29  49 S16       29.90S
YANKTON        CLOUDY    43  27  52 SE17      30.06F
$$

MNZ071-072-080-081-089-090-097-098-230700-
SOUTHWEST MINNESOTA

CITY           SKY/WX    TMP DP  RH WIND       PRES   REMARKS
FAIRMONT       CLOUDY    36  24  62 S16       30.20S
JACKSON        CLOUDY    36  23  60 SE14      30.17F
LUVERNE        CLOUDY    37  27  65 S17G24    30.11F
MARSHALL       CLOUDY    38  24  57 S18G29    30.11F
6HR MIN TEMP:  34; 6HR MAX TEMP:  38;

MONTEVIDEO     CLOUDY    36  25  64 S14G20    30.14F
PIPESTONE      CLOUDY    37  23  56 S16G24    30.08S
REDWOOD FALLS  CLOUDY    37  23  56 SE17G25   30.17F
TRACY          CLOUDY    37  26  64 S15G26    30.13F
WINDOM         CLOUDY    37  23  56 SE16      30.15F
WORTHINGTON    CLOUDY    37  24  59 S18G24    30.13F
$$

IAZ001>003-012>014-020>022-031-032-NEZ013-014-SDZ071-230700-
NORTHWEST IOWA

CITY           SKY/WX    TMP DP  RH WIND       PRES   REMARKS
CHEROKEE       CLOUDY    40  25  53 S15G21    30.15S
DENISON        CLOUDY    41  23  48 SE8       30.13F
ESTHERVILLE    CLOUDY    35  25  66 SE16      30.17F WCI  25
LE MARS        CLOUDY    43  25  49 S13G20    30.13R
ORANGE CITY    CLOUDY    39  27  60 SE10G17   30.12R
SHELDON        CLOUDY    39  30  70 SE20      30.11F
SIOUX CITY     CLOUDY    42  26  53 SE13      30.12S
6HR MIN TEMP:  41; 6HR MAX TEMP:  45;

SPENCER        CLOUDY    39  25  57 SE16G25   30.16F
6HR MIN TEMP:  38; 6HR MAX TEMP:  39;

STORM LAKE     CLOUDY    39  25  56 SE17G24   30.15S
$$

ABBREVIATIONS USED IN REMARKS
   TC - TEMPERATURE IN CELSIUS
  WCI - WIND CHILL INDEX
   HX - HEAT INDEX
  VSB - VISIBILITY





USA.gov is the U.S. government's official web portal to all federal, state and local government web resources and services.